Location: *
(45.8589°N, 4.7139°E)
Time: 14:36:35
(UTC+00:00)

SeaSat 1 - Pass Details

Date: 09 April 2020
Orbit: 745 x 746 km, 108.0° (Epoch: 28 May)

Event Time Altitude Azimuth Distance (km) Brightness Sun altitude
Rises 19:50:46 0° 20° (NNE) 3,200 5.8 -15.5°
Reaches altitude 10° 19:53:16 10° 10° (N) 2,273 5.2 -15.8°
Maximum altitude 19:57:31 30° 310° (NW) 1,317 4.5 -16.5°
Drops below altitude 10° 20:01:47 10° 250° (WSW) 2,262 5.5 -17.1°
Sets 20:04:15 0° 240° (WSW) 3,182 6.1 -17.5°
